Weather History for Anchorage Merrill, AK

Change the Weather History Date:

Monday, November 22, 2010

  Actual Average Record
Temperature  
Mean Temperature 30 °F -  
Max Temperature 36 °F 25 °F 45 °F (2007)
Min Temperature 23 °F 15 °F -8 °F (1993)
Degree Days  
Heating Degree Days 36    
Moisture  
Dew Point 26 °F    
Average Humidity 83    
Maximum Humidity 89    
Minimum Humidity 80    
Precipitation  
Precipitation 0.02 in - - ()
Snow  
Snow 0.00 in - - ()
Snow Depth 1.00 in    
Sea Level Pressure  
Sea Level Pressure 30.13 in    
Wind  
Wind Speed 2 mph (NNW)    
Max Wind Speed 7 mph    
Max Gust Speed -    
Visibility 9 miles    
Events Rain    
Averages and records for this station are not official NWS values.
T = Trace of Precipitation, MM = Missing Value Source: NWS Daily Summary

Daily Weather History Graph

Daily Weather History Graph

Search for Another Location

Airport:

Trip Planner

Search our weather history database for the weather conditions in past years. The results will help you decide how hot, cold, wet, or windy it might be!

Date:

Astronomy

Nov. 22, 2010 Rise Set
Actual Time 9:24 AM AKST 4:06 PM AKST
Civil Twilight 8:29 AM AKST 5:00 PM AKST
Nautical Twilight 7:34 AM AKST 5:56 PM AKST
Astronomical Twilight 6:42 AM AKST 6:48 PM AKST
Moon 4:13 PM AKST (11/22) 11:19 AM AKST (11/22)
Length of Visible Light 8h 31m
Length of Day
6h 42m
Full, 99% of the Moon is Illuminated
Nov 22
Full
Nov 28
Last Quarter
Dec 5
New
Dec 13
First Quarter
Dec 20
Full

Hourly Weather History & Observations

Time (AKST) Temp. Windchill Dew Point Humidity Pressure Visibility Wind Dir Wind Speed Gust Speed Precip Events Conditions
12:49 AM 23.0 °F 18.4 °F 17.6 °F 80% 30.14 in 10.0 mi ENE 3.5 mph - 0.00 in Rain Light Freezing Rain
12:53 AM 23.0 °F - 18.0 °F 81% 30.16 in 10.0 mi Calm Calm - 0.00 in Rain Light Freezing Rain
1:32 AM 23.0 °F - 19.4 °F 86% 30.15 in 10.0 mi Calm Calm - 0.00 in   Overcast
1:50 AM 24.8 °F - 19.4 °F 80% 30.15 in 10.0 mi Calm Calm - 0.00 in Rain Light Freezing Rain
1:53 AM 24.1 °F - 19.0 °F 81% 30.16 in 10.0 mi Calm Calm - 0.00 in Rain Light Freezing Rain
2:07 AM 24.8 °F - 19.4 °F 80% 30.14 in 10.0 mi Calm Calm - 0.00 in   Overcast
2:53 AM 25.0 °F - 21.0 °F 85% 30.15 in 10.0 mi Calm Calm - 0.00 in   Overcast
3:04 AM 26.6 °F - 21.2 °F 80% 30.15 in 8.0 mi Calm Calm - 0.00 in Rain Light Freezing Rain
3:53 AM 26.1 °F - 21.0 °F 81% 30.14 in 9.0 mi Calm Calm - 0.00 in Rain Light Freezing Rain
4:21 AM 26.6 °F - 21.2 °F 80% 30.13 in 9.0 mi Calm Calm - 0.00 in   Overcast
4:53 AM 27.0 °F - 21.9 °F 81% 30.14 in 8.0 mi Calm Calm - 0.00 in Rain Light Freezing Rain
5:53 AM 28.9 °F - 24.1 °F 82% 30.13 in 7.0 mi Calm Calm - 0.00 in Rain Light Freezing Rain
6:53 AM 28.9 °F - 24.1 °F 82% 30.16 in 9.0 mi Calm Calm - 0.00 in Rain Light Freezing Rain
7:53 AM 30.0 °F 26.5 °F 25.0 °F 82% 30.14 in 10.0 mi North 3.5 mph - 0.01 in   Overcast
8:53 AM 30.9 °F - 26.1 °F 82% 30.17 in 10.0 mi Calm Calm - N/A   Overcast
9:53 AM 30.9 °F 24.3 °F 26.1 °F 82% 30.17 in 10.0 mi NNW 6.9 mph - N/A   Overcast
10:53 AM 30.9 °F 26.2 °F 26.1 °F 82% 30.17 in 10.0 mi NNW 4.6 mph - N/A   Overcast
11:53 AM 32.0 °F 27.5 °F 27.0 °F 82% 30.18 in 10.0 mi NE 4.6 mph - N/A   Overcast
12:53 PM 32.0 °F - 28.0 °F 85% 30.17 in 8.0 mi Calm Calm - N/A   Overcast
1:05 PM 32.0 °F 28.7 °F 28.4 °F 87% 30.16 in 7.0 mi NNW 3.5 mph - 0.00 in Rain Light Freezing Rain
1:53 PM 33.1 °F - 28.9 °F 85% 30.16 in 7.0 mi Calm Calm - 0.00 in Rain Light Freezing Rain
2:53 PM 33.1 °F 27.7 °F 28.9 °F 85% 30.14 in 3.0 mi NW 5.8 mph - 0.00 in Rain Light Freezing Rain
3:53 PM 33.1 °F - 30.0 °F 89% 30.14 in 3.0 mi Calm Calm - 0.00 in Rain Light Freezing Rain
4:53 PM 34.0 °F 29.8 °F 30.0 °F 85% 30.14 in 10.0 mi NW 4.6 mph - 0.00 in   Mostly Cloudy
5:00 PM 33.8 °F 29.6 °F 28.4 °F 81% 30.13 in 10.0 mi NW 4.6 mph - 0.01 in   Overcast
5:07 PM 33.8 °F 28.6 °F 28.4 °F 81% 30.13 in 10.0 mi NNW 5.8 mph - 0.01 in   Mostly Cloudy
5:53 PM 34.0 °F - 30.0 °F 85% 30.11 in 10.0 mi Calm Calm - 0.01 in   Mostly Cloudy
6:00 PM 33.8 °F - 30.2 °F 87% 30.09 in 10.0 mi Calm Calm - N/A   Overcast
6:53 PM 33.1 °F 28.7 °F 30.0 °F 89% 30.09 in 10.0 mi NW 4.6 mph - N/A   Overcast
7:21 PM 33.8 °F - 30.2 °F 87% 30.07 in 10.0 mi Calm Calm - N/A   Overcast
7:53 PM 34.0 °F 31.0 °F 30.0 °F 85% 30.07 in 10.0 mi NNE 3.5 mph - N/A   Overcast
8:53 PM 34.0 °F - 30.0 °F 85% 30.08 in 10.0 mi Calm Calm - N/A   Overcast
9:35 PM 35.6 °F - 30.2 °F 81% 30.05 in 10.0 mi Calm Calm - N/A   Overcast
9:53 PM 35.1 °F 30.1 °F 30.9 °F 85% 30.06 in 10.0 mi NNW 5.8 mph - 0.00 in Rain Light Rain
10:53 PM 36.0 °F - 32.0 °F 86% 30.04 in 10.0 mi Calm Calm - 0.00 in Rain Light Rain
11:53 PM 36.0 °F - 32.0 °F 86% 30.01 in 10.0 mi Calm Calm - 0.00 in   Overcast